Chignik, AK

8:57 AM AKDT on July 25, 2017 (GMT -0800)
Chignik

Weather History for PAJC - August, 2013

Change the Weather History Date:

Tuesday, August 20, 2013

  Actual Average Record
Temperature  
Mean Temperature 56 °F -  
Max Temperature 59 °F 56 °F 68 °F (2004)
Min Temperature 53 °F 48 °F 44 °F (2010)
Degree Days  
Heating Degree Days 9    
Growing Degree Days 6 (Base 50)    
Moisture  
Dew Point 46 °F    
Average Humidity 72    
Maximum Humidity 77    
Minimum Humidity 63    
Precipitation  
Precipitation 0.00 in - - ()
Sea Level Pressure  
Sea Level Pressure 29.91 in    
Wind  
Wind Speed 11 mph (WNW)    
Max Wind Speed 18 mph    
Max Gust Speed 24 mph    
Visibility 10 miles    
Events      
Averages and records for this station are not official NWS values.
T = Trace of Precipitation, MM = Missing Value Source: NWS Daily Summary

Daily Weather History Graph

Daily Weather History Graph

Search for Another Location

Airport or City:

Trip Planner

Search our weather history database for the weather conditions in past years. The results will help you decide how hot, cold, wet, or windy it might be!

Date:

Astronomy

Aug. 20, 2013 Rise Set
Actual Time 7:14 AM AKDT 9:57 PM AKDT
Civil Twilight 6:31 AM AKDT 10:39 PM AKDT
Nautical Twilight 5:35 AM AKDT 11:35 PM AKDT
Astronomical Twilight 4:21 AM AKDT 12:47 AM AKDT
Moon 9:21 PM AKDT (8/20) 7:05 AM AKDT (8/20)
Length of Visible Light 16h 08m
Length of Day
14h 43m
Full, 100% of the Moon is Illuminated
Aug 20
Full
Aug 20
Full
Aug 28
Last Quarter
Sep 5
New
Sep 12
First Quarter

Hourly Weather History & Observations

Time (AKDT) Temp. Dew Point Humidity Pressure Visibility Wind Dir Wind Speed Gust Speed Precip Events Conditions
12:16 AM 53.6 °F 44.6 °F 72% 29.81 in 10.0 mi NW 8.1 mph 17.3 mph N/A   Overcast
12:36 AM 53.6 °F 44.6 °F 72% 29.82 in 10.0 mi NW 8.1 mph 21.9 mph N/A   Overcast
12:56 AM 53.6 °F 44.6 °F 72% 29.82 in 10.0 mi WNW 8.1 mph 17.3 mph N/A   Overcast
1:16 AM 53.6 °F 44.6 °F 72% 29.83 in 10.0 mi NW 12.7 mph 17.3 mph N/A   Mostly Cloudy
1:36 AM 53.6 °F 44.6 °F 72% 29.82 in 10.0 mi NW 11.5 mph 17.3 mph N/A   Mostly Cloudy
1:56 AM 53.6 °F 44.6 °F 72% 29.82 in 10.0 mi WNW 12.7 mph 17.3 mph N/A   Mostly Cloudy
2:16 AM 53.6 °F 44.6 °F 72% 29.83 in 10.0 mi WNW 11.5 mph 19.6 mph N/A   Scattered Clouds
2:36 AM 53.6 °F 44.6 °F 72% 29.83 in 10.0 mi WNW 11.5 mph 18.4 mph N/A   Scattered Clouds
2:56 AM 53.6 °F 44.6 °F 72% 29.83 in 10.0 mi WNW 11.5 mph 17.3 mph N/A   Mostly Cloudy
3:16 AM 53.6 °F 44.6 °F 72% 29.83 in 10.0 mi WNW 11.5 mph - N/A   Mostly Cloudy
3:36 AM 53.6 °F 44.6 °F 72% 29.83 in 10.0 mi NNW 12.7 mph - N/A   Scattered Clouds
3:56 AM 53.6 °F 44.6 °F 72% 29.84 in 10.0 mi NW 11.5 mph 18.4 mph N/A   Scattered Clouds
4:16 AM 53.6 °F 44.6 °F 72% 29.84 in 10.0 mi WNW 13.8 mph 18.4 mph N/A   Partly Cloudy
4:36 AM 53.6 °F 44.6 °F 72% 29.85 in 10.0 mi NW 13.8 mph 18.4 mph N/A   Clear
4:56 AM 53.6 °F 44.6 °F 72% 29.85 in 10.0 mi NW 11.5 mph 17.3 mph N/A   Clear
5:16 AM 53.6 °F 44.6 °F 72% 29.85 in 10.0 mi WNW 15.0 mph - N/A   Partly Cloudy
5:36 AM 53.6 °F 44.6 °F 72% 29.85 in 10.0 mi NW 10.4 mph - N/A   Partly Cloudy
5:56 AM 53.6 °F 44.6 °F 72% 29.85 in 10.0 mi WNW 8.1 mph - N/A   Scattered Clouds
6:16 AM 53.6 °F 44.6 °F 72% 29.86 in 10.0 mi West 11.5 mph 17.3 mph N/A   Mostly Cloudy
6:36 AM 53.6 °F 44.6 °F 72% 29.86 in 10.0 mi WNW 10.4 mph 17.3 mph N/A   Scattered Clouds
6:56 AM 53.6 °F 44.6 °F 72% 29.86 in 10.0 mi WNW 11.5 mph - N/A   Mostly Cloudy
7:16 AM 53.6 °F 44.6 °F 72% 29.86 in 10.0 mi West 9.2 mph - N/A   Mostly Cloudy
7:36 AM 53.6 °F 44.6 °F 72% 29.87 in 10.0 mi West 10.4 mph 16.1 mph N/A   Mostly Cloudy
7:56 AM 53.6 °F 46.4 °F 77% 29.88 in 10.0 mi WNW 13.8 mph 19.6 mph N/A   Mostly Cloudy
8:16 AM 53.6 °F 44.6 °F 72% 29.89 in 10.0 mi West 13.8 mph 19.6 mph N/A   Scattered Clouds
8:36 AM 53.6 °F 44.6 °F 72% 29.88 in 10.0 mi West 18.4 mph 24.2 mph N/A   Partly Cloudy
8:56 AM 53.6 °F 44.6 °F 72% 29.89 in 10.0 mi West 12.7 mph 19.6 mph N/A   Clear
9:16 AM 53.6 °F 44.6 °F 72% 29.89 in 10.0 mi West 10.4 mph 24.2 mph N/A   Clear
9:36 AM 53.6 °F 44.6 °F 72% 29.89 in 10.0 mi West 10.4 mph 17.3 mph N/A   Scattered Clouds
9:56 AM 53.6 °F 46.4 °F 77% 29.91 in 10.0 mi West 16.1 mph 20.7 mph N/A   Mostly Cloudy
10:16 AM 53.6 °F 44.6 °F 72% 29.91 in 10.0 mi West 11.5 mph 17.3 mph N/A   Mostly Cloudy
10:36 AM 55.4 °F 46.4 °F 72% 29.91 in 10.0 mi WSW 13.8 mph 18.4 mph N/A   Scattered Clouds
10:56 AM 55.4 °F 46.4 °F 72% 29.92 in 10.0 mi West 10.4 mph 19.6 mph N/A   Scattered Clouds
11:16 AM 55.4 °F 46.4 °F 72% 29.92 in 10.0 mi WNW 11.5 mph - N/A   Mostly Cloudy
11:36 AM 57.2 °F 46.4 °F 67% 29.92 in 10.0 mi West 12.7 mph 19.6 mph N/A   Mostly Cloudy
11:56 AM 57.2 °F 46.4 °F 67% 29.92 in 10.0 mi NW 11.5 mph - N/A   Mostly Cloudy
12:16 PM 57.2 °F 46.4 °F 67% 29.93 in 10.0 mi WSW 11.5 mph - N/A   Scattered Clouds
12:36 PM 57.2 °F 46.4 °F 67% 29.93 in 10.0 mi WNW 12.7 mph 18.4 mph N/A   Partly Cloudy
12:56 PM 57.2 °F 46.4 °F 67% 29.93 in 10.0 mi WNW 10.4 mph 18.4 mph N/A   Scattered Clouds
1:16 PM 59.0 °F 46.4 °F 63% 29.93 in 10.0 mi NNW 10.4 mph - N/A   Overcast
1:36 PM 57.2 °F 46.4 °F 67% 29.93 in 10.0 mi NW 11.5 mph 16.1 mph N/A   Mostly Cloudy
1:56 PM 57.2 °F 46.4 °F 67% 29.94 in 10.0 mi NW 10.4 mph - N/A   Overcast
2:16 PM 57.2 °F 46.4 °F 67% 29.94 in 10.0 mi NW 12.7 mph - N/A   Overcast
2:36 PM 57.2 °F 46.4 °F 67% 29.94 in 10.0 mi NW 10.4 mph 17.3 mph N/A   Overcast
2:56 PM 57.2 °F 46.4 °F 67% 29.94 in 10.0 mi NW 9.2 mph - N/A   Overcast
3:16 PM 57.2 °F 46.4 °F 67% 29.94 in 10.0 mi NW 8.1 mph - N/A   Overcast
3:36 PM 57.2 °F 46.4 °F 67% 29.95 in 10.0 mi NW 9.2 mph 18.4 mph N/A   Overcast
3:56 PM 57.2 °F 46.4 °F 67% 29.95 in 10.0 mi NW 9.2 mph - N/A   Overcast
4:16 PM 57.2 °F 46.4 °F 67% 29.95 in 10.0 mi NW 9.2 mph - N/A   Overcast
4:36 PM 57.2 °F 46.4 °F 67% 29.96 in 10.0 mi NNW 5.8 mph - N/A   Overcast
4:56 PM 55.4 °F 46.4 °F 72% 29.97 in 10.0 mi NW 9.2 mph 16.1 mph N/A   Overcast
5:16 PM 55.4 °F 46.4 °F 72% 29.97 in 10.0 mi WNW 12.7 mph - N/A   Overcast
5:36 PM 55.4 °F 46.4 °F 72% 29.96 in 10.0 mi WNW 11.5 mph - N/A   Overcast
5:56 PM 55.4 °F 46.4 °F 72% 29.96 in 10.0 mi NW 8.1 mph - N/A   Overcast
6:16 PM 55.4 °F 46.4 °F 72% 29.96 in 10.0 mi WNW 10.4 mph - N/A   Overcast
6:36 PM 53.6 °F 46.4 °F 77% 29.97 in 10.0 mi WNW 11.5 mph 16.1 mph N/A   Overcast
6:56 PM 53.6 °F 46.4 °F 77% 29.97 in 10.0 mi West 11.5 mph - N/A   Overcast
7:16 PM 53.6 °F 46.4 °F 77% 29.97 in 10.0 mi WNW 11.5 mph - N/A   Overcast
7:36 PM 53.6 °F 46.4 °F 77% 29.97 in 10.0 mi WNW 8.1 mph - N/A   Overcast
7:56 PM 53.6 °F 46.4 °F 77% 29.96 in 10.0 mi WNW 5.8 mph - N/A   Overcast
8:36 PM 55.4 °F 46.4 °F 72% 29.97 in 10.0 mi WNW 5.8 mph - N/A   Overcast
8:56 PM 55.4 °F 46.4 °F 72% 29.97 in 10.0 mi NW 10.4 mph - N/A   Overcast
9:16 PM 53.6 °F 46.4 °F 77% 29.97 in 10.0 mi WNW 8.1 mph - N/A   Overcast
9:36 PM 53.6 °F 46.4 °F 77% 29.98 in 10.0 mi West 11.5 mph - N/A   Overcast
9:56 PM 53.6 °F 46.4 °F 77% 29.99 in 10.0 mi West 9.2 mph - N/A   Overcast
10:16 PM 53.6 °F 46.4 °F 77% 29.99 in 10.0 mi West 11.5 mph - N/A   Overcast
10:36 PM 53.6 °F 46.4 °F 77% 29.99 in 10.0 mi West 13.8 mph - N/A   Overcast
10:56 PM 53.6 °F 44.6 °F 72% 29.99 in 10.0 mi NW 11.5 mph - N/A   Overcast
11:16 PM 53.6 °F 44.6 °F 72% 30.00 in 10.0 mi West 10.4 mph - N/A   Overcast
11:36 PM 53.6 °F 44.6 °F 72% 30.00 in 10.0 mi WNW 6.9 mph - N/A   Overcast
11:56 PM 53.6 °F 44.6 °F 72% 30.00 in 10.0 mi WNW 3.5 mph - N/A   Overcast